Weather in Slobodskiye Dubrovki

Russia / Republic of Mordovia     54°23′55″N   43°32′30″E
temp.,
°C
wind,
m/s
gust,
m/s
humid.,
%
clouds,
%
prec.,
mm/h
press.,
hPa
HPBL,
m
7 march, sun
sun700:00−14wnw23920 0.0 101420
03:00−15wsw34940 0.0 101333
06:00−15sw479861 0.0 101396
09:00−11ssw6119174 0.0 1010291
12:00−6ssw8148596 0.0 1006904
15:00−5sw10169398 0.6 10021178
18:00−5sw81594100 1.6 9981060
21:00−4sw81494100 2.6 994852
8 march, mon
mon800:00−2sw101588100 1.3 992976
03:00−9w6128571 1.3 994281
06:00−9wsw7158779 0.1 997635
09:00−9wsw6119183 0.1 999474
12:00−6sw698786 0.0 1000846
15:00−4sw698693 0.2 10001077
18:00−7w51188100 0.4 1001395
21:00−11w489180 0.4 1003134
9 march, tue
tue900:00−14wnw469711 0.0 100688
03:00−15wnw459832 0.0 100881
06:00−17wnw349880 0.0 101062
09:00−15wnw359789 0.1 1011194
12:00−11nw359199 0.0 1012426
15:00−10nw358899 0.1 1013620
18:00−12nw3696100 0.2 1014140
21:00−16nnw3697100 0.3 1016107
10 march, wed
wed1000:00−19nw3699100 0.1 101798
03:00−21nw3699100 0.1 1019100
06:00−22nw469998 0.1 1021124
09:00−22nnw479796 0.1 1022270
12:00−19nnw468998 0.0 1024565
15:00−17nnw478699 0.0 1024707
18:00−21nnw3395100 0.0 102524
21:00−24nw339669 0.0 102720
11 march, thu
thu1100:00−24wnw34960 0.0 102731
03:00−24w34930 0.0 102848
06:00−25w44920 0.0 102875
09:00−20wnw48920 0.0 1029250
12:00−14w58860 0.0 1028344
15:00−11w47810 0.0 1028470
18:00−15wsw34870 0.0 102821
21:00−18sw45860 0.0 102961